SPWOT EPKK-EPKK

Flight info

Callsign SPWOT
Flight time 0h 31m
Altitude 2000
Route TRAFFIC PATTERNS
Aircraft C180/L-VGDW/C

Departure

Time 2026-05-07 17:02
Airport Kraków John Paul II International Airport (EPKK)

Arrival

Time 2026-05-07 17:34
Airport Kraków John Paul II International Airport (EPKK)
Time Latitude Longitude Altitude Speed Heading
2026-05-07 16:48 50.07692 19.80075 796 ft 0 kts 348°
2026-05-07 16:57 50.07693 19.80074 796 ft 0 kts 347°
2026-05-07 16:58 50.07695 19.80074 795 ft 1 kts 347°
2026-05-07 16:58 50.07729 19.80057 795 ft 8 kts 323°
2026-05-07 16:59 50.07723 19.79942 796 ft 13 kts 257°
2026-05-07 16:59 50.07706 19.79816 796 ft 8 kts 257°
2026-05-07 16:59 50.07695 19.79744 796 ft 8 kts 258°
2026-05-07 16:59 50.07677 19.79604 796 ft 15 kts 258°
2026-05-07 17:00 50.07655 19.79450 796 ft 13 kts 255°
2026-05-07 17:00 50.07635 19.79309 796 ft 12 kts 260°
2026-05-07 17:00 50.07620 19.79203 796 ft 9 kts 257°
2026-05-07 17:00 50.07650 19.79123 795 ft 9 kts 348°
2026-05-07 17:01 50.07696 19.79108 796 ft 4 kts 348°
2026-05-07 17:01 50.07771 19.79083 796 ft 16 kts 349°
2026-05-07 17:01 50.07843 19.78999 796 ft 14 kts 265°
2026-05-07 17:01 50.07790 19.78584 796 ft 62 kts 258°
2026-05-07 17:02 50.07681 19.77852 942 ft 66 kts 243°
2026-05-07 17:02 50.07556 19.77143 1097 ft 69 kts 252°
2026-05-07 17:02 50.07457 19.76398 1265 ft 68 kts 248°
2026-05-07 17:02 50.07559 19.75734 1416 ft 74 kts 321°
2026-05-07 17:03 50.08067 19.75572 1556 ft 78 kts 355°
2026-05-07 17:03 50.08402 19.76140 1692 ft 77 kts 77°
2026-05-07 17:03 50.08524 19.76983 1801 ft 83 kts 73°
2026-05-07 17:03 50.08898 19.77566 1953 ft 82 kts 14°
2026-05-07 17:04 50.09455 19.77832 2058 ft 87 kts
2026-05-07 17:04 50.10062 19.78028 2086 ft 102 kts
2026-05-07 17:04 50.10772 19.77930 2078 ft 108 kts 317°
2026-05-07 17:04 50.10879 19.76755 1926 ft 115 kts 261°
2026-05-07 17:05 50.10784 19.75582 2051 ft 106 kts 259°
2026-05-07 17:05 50.11229 19.74651 1854 ft 130 kts 339°
2026-05-07 17:05 50.12114 19.74909 1739 ft 132 kts 33°
2026-05-07 17:05 50.12480 19.76104 1809 ft 123 kts 79°
2026-05-07 17:06 50.12492 19.77432 1777 ft 123 kts 98°
2026-05-07 17:06 50.12400 19.78710 1762 ft 125 kts 118°
2026-05-07 17:06 50.11669 19.79157 1705 ft 119 kts 185°
2026-05-07 17:06 50.10865 19.78956 1665 ft 117 kts 218°
2026-05-07 17:07 50.10652 19.77763 1613 ft 117 kts 264°
2026-05-07 17:07 50.10656 19.76474 1572 ft 119 kts 285°
2026-05-07 17:07 50.11293 19.75881 1701 ft 117 kts
2026-05-07 17:07 50.11794 19.76779 1829 ft 114 kts 74°
2026-05-07 17:08 50.11894 19.77943 1983 ft 106 kts 89°
2026-05-07 17:08 50.11701 19.78974 2129 ft 100 kts 135°
2026-05-07 17:08 50.11060 19.79404 2100 ft 105 kts 191°
2026-05-07 17:08 50.10596 19.78482 1870 ft 122 kts 265°
2026-05-07 17:09 50.10582 19.77256 1984 ft 111 kts 263°
2026-05-07 17:09 50.10614 19.76012 1863 ft 124 kts 289°
2026-05-07 17:09 50.11322 19.75572 1835 ft 130 kts 23°
2026-05-07 17:09 50.11785 19.76591 1928 ft 125 kts 73°
2026-05-07 17:10 50.11911 19.77909 2082 ft 110 kts 82°
2026-05-07 17:10 50.12003 19.79178 1902 ft 130 kts 92°
2026-05-07 17:10 50.11613 19.80390 1748 ft 126 kts 163°
2026-05-07 17:10 50.11157 19.79796 1828 ft 101 kts 253°
2026-05-07 17:11 50.10979 19.78698 1834 ft 105 kts 249°
2026-05-07 17:11 50.10715 19.77579 1731 ft 116 kts 245°
2026-05-07 17:11 50.10448 19.76580 1963 ft 97 kts 275°
2026-05-07 17:11 50.10986 19.75771 1836 ft 117 kts 324°
2026-05-07 17:12 50.11633 19.74936 1726 ft 123 kts 316°
2026-05-07 17:12 50.12418 19.74476 1657 ft 130 kts 14°
2026-05-07 17:12 50.12893 19.75564 1731 ft 115 kts 85°
2026-05-07 17:12 50.12926 19.76858 1672 ft 123 kts 94°
2026-05-07 17:13 50.13048 19.78171 1644 ft 125 kts 69°
2026-05-07 17:13 50.12927 19.79413 1734 ft 117 kts 125°
2026-05-07 17:13 50.12304 19.80169 1724 ft 117 kts 164°
2026-05-07 17:13 50.11507 19.80094 1663 ft 117 kts 208°
2026-05-07 17:14 50.11038 19.79084 1659 ft 113 kts 249°
2026-05-07 17:14 50.10845 19.78034 1814 ft 103 kts 248°
2026-05-07 17:14 50.10718 19.76823 1664 ft 116 kts 266°
2026-05-07 17:14 50.10819 19.75671 1732 ft 112 kts 305°
2026-05-07 17:15 50.11451 19.76087 1539 ft 128 kts 91°
2026-05-07 17:15 50.10892 19.76879 1599 ft 111 kts 166°
2026-05-07 17:15 50.10148 19.77058 1689 ft 107 kts 177°
2026-05-07 17:15 50.09448 19.77454 1761 ft 110 kts 153°
2026-05-07 17:16 50.08856 19.78284 1726 ft 122 kts 128°
2026-05-07 17:16 50.08635 19.79593 1607 ft 132 kts 82°
2026-05-07 17:16 50.08844 19.80951 1599 ft 128 kts 77°
2026-05-07 17:16 50.09025 19.82288 1654 ft 124 kts 78°
2026-05-07 17:17 50.09243 19.83583 1648 ft 124 kts 71°
2026-05-07 17:17 50.09542 19.84862 1663 ft 125 kts 68°
2026-05-07 17:17 50.09972 19.85945 1828 ft 111 kts 29°
2026-05-07 17:17 50.10658 19.85703 1791 ft 112 kts 297°
2026-05-07 17:18 50.10397 19.84736 1684 ft 115 kts 199°
2026-05-07 17:18 50.09734 19.85352 1623 ft 124 kts 103°
2026-05-07 17:18 50.10204 19.86230 1647 ft 124 kts 351°
2026-05-07 17:18 50.10562 19.85309 1609 ft 114 kts 240°
2026-05-07 17:19 50.09925 19.85132 1751 ft 110 kts 141°
2026-05-07 17:19 50.09981 19.86291 1708 ft 124 kts 43°
2026-05-07 17:19 50.10690 19.86492 1958 ft 101 kts 318°
2026-05-07 17:19 50.10765 19.85544 1927 ft 109 kts 233°
2026-05-07 17:20 50.10070 19.85418 1890 ft 121 kts 140°
2026-05-07 17:20 50.10319 19.86473 1725 ft 125 kts
2026-05-07 17:20 50.10716 19.85640 1735 ft 110 kts 245°
2026-05-07 17:20 50.10045 19.85456 1728 ft 117 kts 143°
2026-05-07 17:21 50.10050 19.86587 1878 ft 113 kts 37°
2026-05-07 17:21 50.10705 19.86469 2014 ft 97 kts 300°
2026-05-07 17:21 50.10597 19.85498 1863 ft 117 kts 220°
2026-05-07 17:21 50.09739 19.85473 1500 ft 140 kts 149°
2026-05-07 17:22 50.09635 19.86785 1498 ft 133 kts 56°
2026-05-07 17:22 50.10333 19.86840 1637 ft 107 kts 297°
2026-05-07 17:22 50.10278 19.85813 1807 ft 95 kts 244°
2026-05-07 17:22 50.10108 19.84818 1908 ft 98 kts 258°
2026-05-07 17:23 50.09994 19.83729 1925 ft 105 kts 256°
2026-05-07 17:23 50.09923 19.82564 1932 ft 110 kts 279°
2026-05-07 17:23 50.10199 19.81422 1888 ft 118 kts 289°
2026-05-07 17:23 50.10416 19.80204 1918 ft 113 kts 272°
2026-05-07 17:24 50.10307 19.78994 1886 ft 115 kts 253°
2026-05-07 17:24 50.10146 19.77720 1734 ft 125 kts 271°
2026-05-07 17:24 50.10571 19.76626 1781 ft 122 kts 313°
2026-05-07 17:24 50.11338 19.76128 1839 ft 120 kts
2026-05-07 17:25 50.11934 19.76929 1902 ft 117 kts 75°
2026-05-07 17:25 50.12058 19.78200 1915 ft 121 kts 85°
2026-05-07 17:25 50.12111 19.79511 1933 ft 123 kts 89°
2026-05-07 17:25 50.12030 19.80849 1836 ft 128 kts 118°
2026-05-07 17:26 50.11332 19.81579 1713 ft 124 kts 169°
2026-05-07 17:26 50.10560 19.82198 1616 ft 128 kts 136°
2026-05-07 17:26 50.10284 19.83470 1626 ft 125 kts 92°
2026-05-07 17:26 50.09991 19.84667 1615 ft 111 kts 141°
2026-05-07 17:27 50.09450 19.84996 1619 ft 67 kts 175°
2026-05-07 17:27 50.08984 19.84979 1449 ft 68 kts 204°
2026-05-07 17:27 50.08660 19.84490 1343 ft 67 kts 239°
2026-05-07 17:27 50.08529 19.83761 1285 ft 68 kts 255°
2026-05-07 17:28 50.08411 19.83012 1333 ft 73 kts 248°
2026-05-07 17:28 50.08268 19.82192 1274 ft 83 kts 255°
2026-05-07 17:28 50.08164 19.81296 1091 ft 86 kts 257°
2026-05-07 17:28 50.08042 19.80392 918 ft 86 kts 253°
2026-05-07 17:29 50.07921 19.79533 798 ft 73 kts 255°
2026-05-07 17:29 50.07823 19.78813 845 ft 68 kts 252°
2026-05-07 17:29 50.07703 19.78097 929 ft 75 kts 246°
2026-05-07 17:29 50.07642 19.77254 1099 ft 79 kts 274°
2026-05-07 17:30 50.07848 19.76459 1357 ft 71 kts 289°
2026-05-07 17:30 50.08109 19.75853 1579 ft 68 kts 307°
2026-05-07 17:30 50.08582 19.75994 1643 ft 87 kts 65°
2026-05-07 17:30 50.08651 19.77028 1601 ft 108 kts 89°
2026-05-07 17:31 50.08669 19.78259 1580 ft 114 kts 90°
2026-05-07 17:31 50.08821 19.79423 1694 ft 105 kts 74°
2026-05-07 17:31 50.08995 19.80526 1715 ft 110 kts 78°
2026-05-07 17:31 50.09113 19.81763 1659 ft 117 kts 85°
2026-05-07 17:32 50.09226 19.83008 1647 ft 117 kts 83°
2026-05-07 17:32 50.09304 19.84231 1684 ft 100 kts 111°
2026-05-07 17:32 50.08781 19.84586 1668 ft 86 kts 195°
2026-05-07 17:32 50.08505 19.83790 1589 ft 96 kts 261°
2026-05-07 17:33 50.08374 19.82835 1425 ft 90 kts 255°
2026-05-07 17:33 50.08245 19.81908 1182 ft 87 kts 255°
2026-05-07 17:33 50.08129 19.81011 998 ft 81 kts 254°
2026-05-07 17:33 50.08006 19.80162 859 ft 77 kts 254°
2026-05-07 17:34 50.07901 19.79413 796 ft 62 kts 253°
2026-05-07 17:34 50.07819 19.79068 796 ft 11 kts 183°
2026-05-07 17:34 50.07768 19.79080 796 ft 3 kts 160°
2026-05-07 17:34 50.07739 19.79093 796 ft 1 kts 165°
2026-05-07 17:35 50.07731 19.79096 795 ft 0 kts 164°
2026-05-07 17:35 50.07729 19.79097 795 ft 3 kts 167°
2026-05-07 17:35 50.07652 19.79121 796 ft 11 kts 158°
2026-05-07 17:36 50.07619 19.79202 796 ft 13 kts 81°
2026-05-07 17:36 50.07639 19.79342 796 ft 10 kts 82°
2026-05-07 17:36 50.07652 19.79435 796 ft 8 kts 79°
2026-05-07 17:36 50.07665 19.79527 796 ft 8 kts 77°
2026-05-07 17:37 50.07679 19.79622 796 ft 9 kts 76°
2026-05-07 17:37 50.07694 19.79729 796 ft 10 kts 80°
2026-05-07 17:37 50.07704 19.79843 796 ft 10 kts 110°
2026-05-07 17:37 50.07652 19.79886 796 ft 5 kts 168°
2026-05-07 17:38 50.07617 19.79904 796 ft 9 kts 141°
2026-05-07 17:38 50.07620 19.80044 796 ft 11 kts 78°
2026-05-07 17:38 50.07639 19.80098 796 ft 3 kts 343°
2026-05-07 17:38 50.07678 19.80080 796 ft 3 kts 347°
2026-05-07 17:39 50.07692 19.80075 796 ft 0 kts 345°